Time,TemperatureF,DewpointF,PressureIn,WindDirection,WindDirectionDegrees,WindSpeedMPH,WindSpeedGustMPH,Humidity,HourlyPrecipIn,Conditions,Clouds,dailyrainin,SoftwareType,DateUTC
2013-01-02 00:00:00,33.1,33.1,30.19,NNE,24,0.0,0.0,100,0.00,,,0.00,VWS V13.01,2013-01-02 06:00:00,
2013-01-02 00:05:00,32.9,32.9,30.19,NNE,24,0.0,0.0,100,0.00,,,0.00,VWS V13.01,2013-01-02 06:05:00,
2013-01-02 00:10:00,32.9,32.9,30.19,NNE,24,0.0,0.0,100,0.00,,,0.00,VWS V13.01,2013-01-02 06:10:00,
2013-01-02 00:15:00,32.9,32.9,30.19,NNE,24,0.0,0.0,100,0.00,,,0.00,VWS V13.01,2013-01-02 06:15:00,
2013-01-02 00:20:00,32.9,32.9,30.19,NNE,24,0.0,0.0,100,0.00,,,0.00,VWS V13.01,2013-01-02 06:20:00,
2013-01-02 00:25:00,32.9,32.9,30.19,NNE,24,0.0,0.0,100,0.00,,,0.00,VWS V13.01,2013-01-02 06:25:00,
2013-01-02 00:30:00,32.9,32.9,30.19,NNE,24,0.0,0.0,100,0.00,,,0.00,VWS V13.01,2013-01-02 06:30:00,
2013-01-02 00:35:00,32.9,32.9,30.19,NNE,24,0.0,0.0,100,0.00,,,0.00,VWS V13.01,2013-01-02 06:35:00,
2013-01-02 00:40:00,32.9,32.9,30.19,NNE,24,0.0,0.0,100,0.00,,,0.00,VWS V13.01,2013-01-02 06:40:00,
2013-01-02 00:45:00,33.1,33.1,30.19,NNE,24,0.0,0.0,100,0.00,,,0.00,VWS V13.01,2013-01-02 06:45:00,
2013-01-02 00:50:00,33.1,33.1,30.19,NNE,24,0.0,0.0,100,0.00,,,0.00,VWS V13.01,2013-01-02 06:50:00,
2013-01-02 00:55:00,33.1,33.1,30.19,ENE,61,0.0,0.0,100,0.00,,,0.00,VWS V13.01,2013-01-02 06:55:00,
2013-01-02 01:00:00,32.9,32.9,30.19,ENE,75,0.0,0.0,100,0.00,,,0.00,VWS V13.01,2013-01-02 07:00:00,
2013-01-02 01:05:00,32.9,32.9,30.19,East,91,0.0,0.0,100,0.00,,,0.00,VWS V13.01,2013-01-02 07:05:00,
2013-01-02 01:10:00,32.9,32.9,30.19,East,91,0.0,0.0,100,0.00,,,0.00,VWS V13.01,2013-01-02 07:10:00,
2013-01-02 01:15:00,32.9,32.9,30.19,East,91,0.0,0.0,100,0.00,,,0.00,VWS V13.01,2013-01-02 07:15:00,
2013-01-02 01:20:00,32.9,32.9,30.19,East,91,0.0,0.0,100,0.00,,,0.00,VWS V13.01,2013-01-02 07:20:00,
2013-01-02 01:25:00,33.1,32.8,30.19,East,91,0.0,0.0,99,0.00,,,0.00,VWS V13.01,2013-01-02 07:25:00,
2013-01-02 01:30:00,33.1,32.8,30.22,East,91,0.0,0.0,99,0.00,,,0.00,VWS V13.01,2013-01-02 07:30:00,
2013-01-02 01:35:00,33.1,32.8,30.22,East,91,0.0,0.0,99,0.00,,,0.00,VWS V13.01,2013-01-02 07:35:00,
2013-01-02 01:40:00,33.1,32.8,30.22,East,91,0.0,0.0,99,0.00,,,0.00,VWS V13.01,2013-01-02 07:40:00,
2013-01-02 01:45:00,32.9,32.1,30.22,East,91,0.0,0.0,97,0.00,,,0.00,VWS V13.01,2013-01-02 07:45:00,
2013-01-02 01:50:00,33.1,32.0,30.22,East,91,0.0,0.0,96,0.00,,,0.00,VWS V13.01,2013-01-02 07:50:00,
2013-01-02 01:55:00,33.2,32.2,30.22,NNE,32,0.0,0.0,96,0.00,,,0.00,VWS V13.01,2013-01-02 07:55:00,
2013-01-02 02:00:00,33.2,32.2,30.22,NNE,31,0.0,0.0,96,0.00,,,0.00,VWS V13.01,2013-01-02 08:00:00,
2013-01-02 02:05:00,33.2,32.2,30.22,NNE,32,0.0,0.0,96,0.00,,,0.00,VWS V13.01,2013-01-02 08:05:00,
2013-01-02 02:10:00,33.1,30.7,30.22,North,352,0.0,0.0,91,0.00,,,0.00,VWS V13.01,2013-01-02 08:10:00,
2013-01-02 02:15:00,33.1,30.2,30.22,North,352,0.0,0.0,89,0.00,,,0.00,VWS V13.01,2013-01-02 08:15:00,
2013-01-02 02:20:00,33.1,29.6,30.22,NW,322,0.0,0.0,87,0.00,,,0.00,VWS V13.01,2013-01-02 08:20:00,
2013-01-02 02:25:00,33.1,29.6,30.22,NW,322,0.0,0.0,87,0.00,,,0.00,VWS V13.01,2013-01-02 08:25:00,
2013-01-02 02:30:00,33.1,29.6,30.22,NW,322,0.0,0.0,87,0.00,,,0.00,VWS V13.01,2013-01-02 08:30:00,
2013-01-02 02:35:00,33.1,29.6,30.22,NW,322,0.0,0.0,87,0.00,,,0.00,VWS V13.01,2013-01-02 08:35:00,
2013-01-02 02:40:00,33.1,29.9,30.22,NW,322,0.0,0.0,88,0.00,,,0.00,VWS V13.01,2013-01-02 08:40:00,
2013-01-02 02:45:00,33.1,29.9,30.22,NW,322,0.0,0.0,88,0.00,,,0.00,VWS V13.01,2013-01-02 08:45:00,
2013-01-02 02:50:00,33.1,29.9,30.22,NW,322,0.0,0.0,88,0.00,,,0.00,VWS V13.01,2013-01-02 08:50:00,
2013-01-02 02:55:00,32.9,29.4,30.22,NW,322,0.0,0.0,87,0.00,,,0.00,VWS V13.01,2013-01-02 08:55:00,
2013-01-02 03:00:00,32.9,29.4,30.22,NW,322,0.0,0.0,87,0.00,,,0.00,VWS V13.01,2013-01-02 09:00:00,
2013-01-02 03:05:00,32.9,28.6,30.22,NW,322,0.0,0.0,84,0.00,,,0.00,VWS V13.01,2013-01-02 09:05:00,
2013-01-02 03:10:00,32.9,28.9,30.22,NW,322,0.0,0.0,85,0.00,,,0.00,VWS V13.01,2013-01-02 09:10:00,
2013-01-02 03:15:00,32.9,28.9,30.22,NNE,33,0.0,0.0,85,0.00,,,0.00,VWS V13.01,2013-01-02 09:15:00,
2013-01-02 03:20:00,32.7,29.0,30.22,NNE,33,0.0,0.0,86,0.00,,,0.00,VWS V13.01,2013-01-02 09:20:00,
2013-01-02 03:25:00,32.7,29.0,30.22,NNE,33,0.0,0.0,86,0.00,,,0.00,VWS V13.01,2013-01-02 09:25:00,
2013-01-02 03:30:00,32.5,28.8,30.22,NNE,33,0.0,0.0,86,0.00,,,0.00,VWS V13.01,2013-01-02 09:30:00,
2013-01-02 03:35:00,32.5,29.1,30.22,NNE,33,0.0,0.0,87,0.00,,,0.00,VWS V13.01,2013-01-02 09:35:00,
2013-01-02 03:40:00,32.5,28.8,30.22,NNE,33,0.0,0.0,86,0.00,,,0.00,VWS V13.01,2013-01-02 09:40:00,
2013-01-02 03:45:00,32.5,28.5,30.22,NNE,33,0.0,0.0,85,0.00,,,0.00,VWS V13.01,2013-01-02 09:45:00,
2013-01-02 03:50:00,32.5,28.2,30.22,NNE,33,0.0,0.0,84,0.00,,,0.00,VWS V13.01,2013-01-02 09:50:00,
2013-01-02 03:55:00,32.5,27.6,30.22,North,6,0.0,0.0,82,0.00,,,0.00,VWS V13.01,2013-01-02 09:55:00,
2013-01-02 04:00:00,32.5,27.6,30.22,NNW,339,0.0,0.0,82,0.00,,,0.00,VWS V13.01,2013-01-02 10:00:00,
2013-01-02 04:04:00,32.5,27.4,30.22,NNW,339,0.0,0.0,81,0.00,,,0.00,VWS V13.01,2013-01-02 10:04:00,
2013-01-02 04:09:00,32.5,27.9,30.22,NNW,339,0.0,0.0,83,0.00,,,0.00,VWS V13.01,2013-01-02 10:09:00,
2013-01-02 04:14:00,32.5,28.8,30.22,NNE,15,0.0,0.0,86,0.00,,,0.00,VWS V13.01,2013-01-02 10:14:00,
2013-01-02 04:19:00,32.3,28.9,30.22,NNE,31,0.0,0.0,87,0.00,,,0.00,VWS V13.01,2013-01-02 10:19:00,
2013-01-02 04:24:00,32.3,29.2,30.22,NNE,31,0.0,0.0,88,0.00,,,0.00,VWS V13.01,2013-01-02 10:24:00,
2013-01-02 04:29:00,32.3,29.2,30.22,NNE,31,0.0,0.0,88,0.00,,,0.00,VWS V13.01,2013-01-02 10:29:00,
2013-01-02 04:34:00,32.3,29.5,30.22,NNE,31,0.0,0.0,89,0.00,,,0.00,VWS V13.01,2013-01-02 10:34:00,
2013-01-02 04:39:00,32.2,29.3,30.22,NNE,31,0.0,0.0,89,0.00,,,0.00,VWS V13.01,2013-01-02 10:39:00,
2013-01-02 04:44:00,32.2,29.3,30.22,NNE,31,0.0,0.0,89,0.00,,,0.00,VWS V13.01,2013-01-02 10:44:00,
2013-01-02 04:49:00,32.2,29.3,30.22,NNE,31,0.0,0.0,89,0.00,,,0.00,VWS V13.01,2013-01-02 10:49:00,
2013-01-02 04:54:00,32.2,29.3,30.22,NNE,31,0.0,0.0,89,0.00,,,0.00,VWS V13.01,2013-01-02 10:54:00,
2013-01-02 04:59:00,32.2,29.3,30.22,NNE,31,0.0,0.0,89,0.00,,,0.00,VWS V13.01,2013-01-02 10:59:00,
2013-01-02 05:04:00,32.2,29.3,30.22,NNE,31,0.0,0.0,89,0.00,,,0.00,VWS V13.01,2013-01-02 11:04:00,
2013-01-02 05:09:00,32.0,29.1,30.22,NNE,31,0.0,0.0,89,0.00,,,0.00,VWS V13.01,2013-01-02 11:09:00,
2013-01-02 05:14:00,32.0,29.1,30.22,NNE,31,0.0,0.0,89,0.00,,,0.00,VWS V13.01,2013-01-02 11:14:00,
2013-01-02 05:19:00,32.0,29.1,30.22,NNE,31,0.0,0.0,89,0.00,,,0.00,VWS V13.01,2013-01-02 11:19:00,
2013-01-02 05:24:00,32.0,29.1,30.22,NNE,31,0.0,0.0,89,0.00,,,0.00,VWS V13.01,2013-01-02 11:24:00,
2013-01-02 05:29:00,32.0,29.1,30.22,NNE,31,0.0,0.0,89,0.00,,,0.00,VWS V13.01,2013-01-02 11:29:00,
2013-01-02 05:34:00,32.0,29.4,30.22,NNE,31,0.0,0.0,90,0.00,,,0.00,VWS V13.01,2013-01-02 11:34:00,
2013-01-02 05:39:00,32.0,29.4,30.22,NNE,31,0.0,0.0,90,0.00,,,0.00,VWS V13.01,2013-01-02 11:39:00,
2013-01-02 05:44:00,32.0,29.4,30.22,NNE,31,0.0,0.0,90,0.00,,,0.00,VWS V13.01,2013-01-02 11:44:00,
2013-01-02 05:49:00,31.8,29.2,30.22,NNE,31,0.0,0.0,90,0.00,,,0.00,VWS V13.01,2013-01-02 11:49:00,
2013-01-02 05:54:00,31.8,29.2,30.22,ENE,62,0.0,0.0,90,0.00,,,0.00,VWS V13.01,2013-01-02 11:54:00,
2013-01-02 05:59:00,31.8,29.2,30.22,ENE,62,0.0,0.0,90,0.00,,,0.00,VWS V13.01,2013-01-02 11:59:00,
2013-01-02 06:04:00,31.8,29.2,30.22,East,90,0.0,0.0,90,0.00,,,0.00,VWS V13.01,2013-01-02 12:04:00,
2013-01-02 06:09:00,31.8,29.2,30.22,ESE,121,0.0,0.0,90,0.00,,,0.00,VWS V13.01,2013-01-02 12:09:00,
2013-01-02 06:14:00,31.8,29.2,30.22,ESE,120,0.0,0.0,90,0.00,,,0.00,VWS V13.01,2013-01-02 12:14:00,
2013-01-02 06:19:00,31.8,28.9,30.22,ESE,108,0.0,0.0,89,0.00,,,0.00,VWS V13.01,2013-01-02 12:19:00,
2013-01-02 06:24:00,31.6,29.0,30.22,ESE,108,0.0,0.0,90,0.00,,,0.00,VWS V13.01,2013-01-02 12:24:00,
2013-01-02 06:29:00,31.6,28.8,30.22,East,79,0.0,3.1,89,0.00,,,0.00,VWS V13.01,2013-01-02 12:29:00,
2013-01-02 06:34:00,31.6,28.8,30.22,East,94,0.0,0.0,89,0.00,,,0.00,VWS V13.01,2013-01-02 12:34:00,
2013-01-02 06:39:00,31.4,28.3,30.22,East,92,0.0,0.0,88,0.00,,,0.00,VWS V13.01,2013-01-02 12:39:00,
2013-01-02 06:44:00,31.4,28.3,30.22,East,85,0.0,0.0,88,0.00,,,0.00,VWS V13.01,2013-01-02 12:44:00,
2013-01-02 06:49:00,31.4,28.3,30.22,East,82,0.0,0.0,88,0.00,,,0.00,VWS V13.01,2013-01-02 12:49:00,
2013-01-02 06:54:00,31.4,28.3,30.22,ESE,112,2.7,2.7,88,0.00,,,0.00,VWS V13.01,2013-01-02 12:54:00,
2013-01-02 06:59:00,31.4,28.6,30.22,East,91,0.0,0.0,89,0.00,,,0.00,VWS V13.01,2013-01-02 12:59:00,
2013-01-02 07:04:00,31.6,28.8,30.22,SE,126,0.0,2.7,89,0.00,,,0.00,VWS V13.01,2013-01-02 13:04:00,
2013-01-02 07:09:00,31.6,29.6,30.22,ESE,116,2.7,2.7,92,0.00,,,0.00,VWS V13.01,2013-01-02 13:09:00,
2013-01-02 07:14:00,31.6,29.8,30.22,ESE,122,2.7,3.6,93,0.00,,,0.00,VWS V13.01,2013-01-02 13:14:00,
2013-01-02 07:19:00,31.6,30.1,30.22,SSE,152,2.7,3.1,94,0.00,,,0.00,VWS V13.01,2013-01-02 13:19:00,
2013-01-02 07:24:00,31.6,30.4,30.22,SSE,161,0.0,0.0,95,0.00,,,0.00,VWS V13.01,2013-01-02 13:24:00,
2013-01-02 07:29:00,31.4,30.4,30.22,ENE,59,0.0,0.0,96,0.00,,,0.00,VWS V13.01,2013-01-02 13:29:00,
2013-01-02 07:34:00,31.3,30.0,30.22,East,94,3.6,4.9,95,0.00,,,0.00,VWS V13.01,2013-01-02 13:34:00,
2013-01-02 07:39:00,31.3,28.9,30.22,East,92,4.0,4.0,91,0.00,,,0.00,VWS V13.01,2013-01-02 13:39:00,
2013-01-02 07:44:00,31.3,28.4,30.22,East,81,3.6,3.6,89,0.00,,,0.00,VWS V13.01,2013-01-02 13:44:00,
2013-01-02 07:49:00,31.3,28.4,30.22,SE,140,2.7,2.7,89,0.00,,,0.00,VWS V13.01,2013-01-02 13:49:00,
2013-01-02 07:54:00,31.3,28.4,30.22,ESE,105,0.0,0.0,89,0.00,,,0.00,VWS V13.01,2013-01-02 13:54:00,
2013-01-02 07:59:00,31.3,28.4,30.25,ESE,103,0.0,0.0,89,0.00,,,0.00,VWS V13.01,2013-01-02 13:59:00,
2013-01-02 08:04:00,31.3,28.9,30.25,ESE,112,0.0,0.0,91,0.00,,,0.00,VWS V13.01,2013-01-02 14:04:00,
2013-01-02 08:09:00,31.3,29.5,30.25,ENE,67,2.7,2.7,93,0.00,,,0.00,VWS V13.01,2013-01-02 14:09:00,
2013-01-02 08:14:00,31.1,29.6,30.25,East,84,0.0,0.0,94,0.00,,,0.00,VWS V13.01,2013-01-02 14:14:00,
2013-01-02 08:19:00,31.1,29.6,30.25,ESE,110,0.0,0.0,94,0.00,,,0.00,VWS V13.01,2013-01-02 14:19:00,
2013-01-02 08:24:00,31.1,29.8,30.25,SSW,192,2.2,2.7,95,0.00,,,0.00,VWS V13.01,2013-01-02 14:24:00,
2013-01-02 08:29:00,31.1,30.3,30.25,South,177,4.9,5.8,97,0.00,,,0.00,VWS V13.01,2013-01-02 14:29:00,
2013-01-02 08:34:00,31.1,30.6,30.25,SSW,202,3.1,4.0,98,0.00,,,0.00,VWS V13.01,2013-01-02 14:34:00,
2013-01-02 08:39:00,31.1,30.8,30.25,South,171,3.1,3.1,99,0.00,,,0.00,VWS V13.01,2013-01-02 14:39:00,
2013-01-02 08:44:00,31.1,31.1,30.25,SSE,166,4.9,4.9,100,0.00,,,0.00,VWS V13.01,2013-01-02 14:44:00,
2013-01-02 08:49:00,30.9,30.9,30.25,SW,224,3.6,3.6,100,0.00,,,0.00,VWS V13.01,2013-01-02 14:49:00,
2013-01-02 08:54:00,30.9,30.9,30.25,SSW,204,3.6,3.6,100,0.00,,,0.00,VWS V13.01,2013-01-02 14:54:00,
2013-01-02 08:59:00,30.9,30.9,30.25,SW,231,3.6,4.0,100,0.00,,,0.00,VWS V13.01,2013-01-02 14:59:00,
2013-01-02 09:04:00,30.9,30.9,30.25,South,191,5.4,5.4,100,0.00,,,0.00,VWS V13.01,2013-01-02 15:04:00,
2013-01-02 09:09:00,30.9,30.9,30.25,SSW,203,4.0,5.4,100,0.00,,,0.00,VWS V13.01,2013-01-02 15:09:00,
2013-01-02 09:14:00,30.9,30.9,30.25,SW,233,5.8,5.8,100,0.00,,,0.00,VWS V13.01,2013-01-02 15:14:00,
2013-01-02 09:19:00,30.9,30.9,30.25,South,190,4.9,5.8,100,0.00,,,0.00,VWS V13.01,2013-01-02 15:19:00,
2013-01-02 09:24:00,30.9,30.9,30.25,WSW,251,4.9,4.9,100,0.00,,,0.00,VWS V13.01,2013-01-02 15:24:00,
2013-01-02 09:29:00,30.9,30.9,30.25,SW,227,4.0,4.0,100,0.00,,,0.00,VWS V13.01,2013-01-02 15:29:00,
2013-01-02 09:34:00,31.1,31.1,30.25,South,186,5.8,5.8,100,0.00,,,0.00,VWS V13.01,2013-01-02 15:34:00,
2013-01-02 09:39:00,31.1,31.1,30.25,SSW,201,4.0,5.8,100,0.00,,,0.00,VWS V13.01,2013-01-02 15:39:00,
2013-01-02 09:44:00,31.1,31.1,30.25,South,185,4.0,4.0,100,0.00,,,0.00,VWS V13.01,2013-01-02 15:44:00,
2013-01-02 09:49:00,31.1,30.8,30.25,WSW,244,2.7,4.0,99,0.00,,,0.00,VWS V13.01,2013-01-02 15:49:00,
2013-01-02 09:53:00,31.1,30.8,30.25,South,174,7.2,7.2,99,0.00,,,0.00,VWS V13.01,2013-01-02 15:53:00,
2013-01-02 09:58:00,31.1,30.6,30.25,South,170,4.0,4.0,98,0.00,,,0.00,VWS V13.01,2013-01-02 15:58:00,
2013-01-02 10:03:00,31.1,30.6,30.25,South,188,4.0,4.9,98,0.00,,,0.00,VWS V13.01,2013-01-02 16:03:00,
2013-01-02 10:08:00,31.1,30.3,30.25,SSW,197,3.6,4.9,97,0.00,,,0.00,VWS V13.01,2013-01-02 16:08:00,
2013-01-02 10:13:00,31.1,30.3,30.25,SSW,201,4.9,4.9,97,0.00,,,0.00,VWS V13.01,2013-01-02 16:13:00,
2013-01-02 10:18:00,31.1,30.3,30.25,South,182,3.1,3.6,97,0.00,,,0.00,VWS V13.01,2013-01-02 16:18:00,
2013-01-02 10:23:00,31.1,30.1,30.25,SSW,213,3.6,4.0,96,0.00,,,0.00,VWS V13.01,2013-01-02 16:23:00,
2013-01-02 10:28:00,31.3,30.5,30.25,SSW,207,3.1,4.0,97,0.00,,,0.00,VWS V13.01,2013-01-02 16:28:00,
2013-01-02 10:33:00,31.3,30.5,30.25,SSW,206,3.1,4.0,97,0.00,,,0.00,VWS V13.01,2013-01-02 16:33:00,
2013-01-02 10:38:00,31.3,30.2,30.25,SSE,166,5.4,5.4,96,0.00,,,0.00,VWS V13.01,2013-01-02 16:38:00,
2013-01-02 10:43:00,31.3,30.2,30.25,SSW,212,4.5,5.4,96,0.00,,,0.00,VWS V13.01,2013-01-02 16:43:00,
2013-01-02 10:48:00,31.1,29.8,30.25,SW,232,3.1,5.4,95,0.00,,,0.00,VWS V13.01,2013-01-02 16:48:00,
2013-01-02 10:53:00,31.1,30.1,30.25,SW,234,4.0,4.0,96,0.00,,,0.00,VWS V13.01,2013-01-02 16:53:00,
2013-01-02 10:58:00,31.3,30.5,30.25,SW,220,4.0,4.0,97,0.00,,,0.00,VWS V13.01,2013-01-02 16:58:00,
2013-01-02 11:03:00,31.3,30.5,30.25,SW,222,4.0,4.9,97,0.00,,,0.00,VWS V13.01,2013-01-02 17:03:00,
2013-01-02 11:08:00,31.1,30.3,30.25,South,187,5.4,5.8,97,0.00,,,0.00,VWS V13.01,2013-01-02 17:08:00,
2013-01-02 11:13:00,31.1,30.1,30.25,SSW,199,3.6,3.6,96,0.00,,,0.00,VWS V13.01,2013-01-02 17:13:00,
2013-01-02 11:18:00,31.3,30.5,30.25,South,179,5.4,5.4,97,0.00,,,0.00,VWS V13.01,2013-01-02 17:18:00,
2013-01-02 11:23:00,31.1,30.3,30.25,South,188,4.0,5.8,97,0.00,,,0.00,VWS V13.01,2013-01-02 17:23:00,
2013-01-02 11:28:00,31.1,30.3,30.25,SSW,198,3.6,4.0,97,0.00,,,0.00,VWS V13.01,2013-01-02 17:28:00,
2013-01-02 11:33:00,31.3,30.5,30.25,South,187,3.6,4.9,97,0.00,,,0.00,VWS V13.01,2013-01-02 17:33:00,
2013-01-02 11:38:00,31.3,30.5,30.25,SW,220,4.0,4.0,97,0.00,,,0.00,VWS V13.01,2013-01-02 17:38:00,
2013-01-02 11:43:00,31.3,30.5,30.25,SW,218,3.1,3.6,97,0.00,,,0.00,VWS V13.01,2013-01-02 17:43:00,
2013-01-02 11:48:00,31.4,30.7,30.25,SW,236,4.0,6.3,97,0.00,,,0.00,VWS V13.01,2013-01-02 17:48:00,
2013-01-02 11:53:00,31.4,30.2,30.25,SW,226,5.4,5.8,95,0.00,,,0.00,VWS V13.01,2013-01-02 17:53:00,
2013-01-02 11:58:00,31.4,29.9,30.22,WSW,243,5.4,5.4,94,0.00,,,0.00,VWS V13.01,2013-01-02 17:58:00,
2013-01-02 12:03:00,31.6,30.4,30.22,SW,218,4.0,5.8,95,0.00,,,0.00,VWS V13.01,2013-01-02 18:03:00,
2013-01-02 12:08:00,31.6,29.8,30.22,SW,228,5.4,5.4,93,0.00,,,0.00,VWS V13.01,2013-01-02 18:08:00,
2013-01-02 12:13:00,31.6,29.8,30.22,West,261,4.5,4.9,93,0.00,,,0.00,VWS V13.01,2013-01-02 18:13:00,
2013-01-02 12:18:00,31.8,30.0,30.22,SW,229,4.9,4.9,93,0.00,,,0.00,VWS V13.01,2013-01-02 18:18:00,
2013-01-02 12:23:00,31.8,30.0,30.22,SW,230,5.4,5.4,93,0.00,,,0.00,VWS V13.01,2013-01-02 18:23:00,
2013-01-02 12:28:00,32.2,30.4,30.22,SW,230,5.8,7.6,93,0.00,,,0.00,VWS V13.01,2013-01-02 18:28:00,
2013-01-02 12:33:00,32.2,30.1,30.22,SW,228,4.9,4.9,92,0.00,,,0.00,VWS V13.01,2013-01-02 18:33:00,
2013-01-02 12:38:00,32.3,30.0,30.22,SSW,205,5.4,5.4,91,0.00,,,0.00,VWS V13.01,2013-01-02 18:38:00,
2013-01-02 12:43:00,32.3,29.5,30.22,SW,225,3.6,3.6,89,0.00,,,0.00,VWS V13.01,2013-01-02 18:43:00,
2013-01-02 12:48:00,32.5,29.6,30.22,SSW,201,3.1,3.1,89,0.00,,,0.00,VWS V13.01,2013-01-02 18:48:00,
2013-01-02 12:53:00,32.5,29.6,30.22,WSW,239,7.6,8.7,89,0.00,,,0.00,VWS V13.01,2013-01-02 18:53:00,
2013-01-02 12:58:00,32.5,29.1,30.22,SW,235,4.0,4.9,87,0.00,,,0.00,VWS V13.01,2013-01-02 18:58:00,
2013-01-02 13:03:00,32.7,29.5,30.22,WSW,239,5.8,5.8,88,0.00,,,0.00,VWS V13.01,2013-01-02 19:03:00,
2013-01-02 13:08:00,32.5,28.2,30.22,SW,222,3.6,5.8,84,0.00,,,0.00,VWS V13.01,2013-01-02 19:08:00,
2013-01-02 13:13:00,32.5,28.5,30.19,South,176,4.9,4.9,85,0.00,,,0.00,VWS V13.01,2013-01-02 19:13:00,
2013-01-02 13:18:00,32.5,28.2,30.19,SW,228,4.0,4.9,84,0.00,,,0.00,VWS V13.01,2013-01-02 19:18:00,
2013-01-02 13:23:00,32.7,28.1,30.19,SW,229,8.1,8.1,83,0.00,,,0.00,VWS V13.01,2013-01-02 19:23:00,
2013-01-02 13:28:00,32.9,28.3,30.19,SW,222,4.5,6.3,83,0.00,,,0.00,VWS V13.01,2013-01-02 19:28:00,
2013-01-02 13:33:00,32.9,28.0,30.19,WSW,237,3.6,4.0,82,0.00,,,0.00,VWS V13.01,2013-01-02 19:33:00,
2013-01-02 13:38:00,32.9,27.4,30.19,West,260,5.4,5.4,80,0.00,,,0.00,VWS V13.01,2013-01-02 19:38:00,
2013-01-02 13:43:00,32.9,27.4,30.19,SW,231,3.6,3.6,80,0.00,,,0.00,VWS V13.01,2013-01-02 19:43:00,
2013-01-02 13:48:00,33.1,27.3,30.19,SSW,202,5.8,5.8,79,0.00,,,0.00,VWS V13.01,2013-01-02 19:48:00,
2013-01-02 13:53:00,33.1,27.3,30.19,SW,217,4.0,4.0,79,0.00,,,0.00,VWS V13.01,2013-01-02 19:53:00,
2013-01-02 13:58:00,33.1,27.6,30.19,SSW,200,3.6,4.0,80,0.00,,,0.00,VWS V13.01,2013-01-02 19:58:00,
2013-01-02 14:03:00,33.2,27.1,30.19,SSW,206,5.4,5.4,78,0.00,,,0.00,VWS V13.01,2013-01-02 20:03:00,
2013-01-02 14:08:00,33.4,27.6,30.19,WSW,240,6.7,6.7,79,0.00,,,0.00,VWS V13.01,2013-01-02 20:08:00,
2013-01-02 14:13:00,33.4,27.6,30.19,WSW,241,7.6,8.1,79,0.00,,,0.00,VWS V13.01,2013-01-02 20:13:00,
2013-01-02 14:18:00,33.4,27.3,30.19,South,175,2.7,4.0,78,0.00,,,0.00,VWS V13.01,2013-01-02 20:18:00,
2013-01-02 14:23:00,33.4,27.3,30.19,SW,231,3.6,3.6,78,0.00,,,0.00,VWS V13.01,2013-01-02 20:23:00,
2013-01-02 14:28:00,33.6,27.2,30.19,South,183,2.2,2.2,77,0.00,,,0.00,VWS V13.01,2013-01-02 20:28:00,
2013-01-02 14:33:00,33.8,27.4,30.19,WSW,249,3.1,3.1,77,0.00,,,0.00,VWS V13.01,2013-01-02 20:33:00,
2013-01-02 14:38:00,34.0,27.2,30.19,SW,214,0.0,0.0,76,0.00,,,0.00,VWS V13.01,2013-01-02 20:38:00,
2013-01-02 14:43:00,34.0,26.6,30.19,SSE,168,2.7,2.7,74,0.00,,,0.00,VWS V13.01,2013-01-02 20:43:00,
2013-01-02 14:48:00,34.1,26.7,30.19,West,263,0.0,0.0,74,0.00,,,0.00,VWS V13.01,2013-01-02 20:48:00,
2013-01-02 14:53:00,34.3,27.2,30.19,SSE,165,0.0,2.7,75,0.00,,,0.00,VWS V13.01,2013-01-02 20:53:00,
2013-01-02 14:58:00,34.3,26.6,30.19,South,175,5.8,5.8,73,0.00,,,0.00,VWS V13.01,2013-01-02 20:58:00,
2013-01-02 15:03:00,34.1,26.4,30.19,South,188,3.1,4.9,73,0.00,,,0.00,VWS V13.01,2013-01-02 21:03:00,
2013-01-02 15:08:00,34.1,26.4,30.19,SW,219,2.7,3.6,73,0.00,,,0.00,VWS V13.01,2013-01-02 21:08:00,
2013-01-02 15:13:00,34.1,26.4,30.19,SSE,165,3.6,4.0,73,0.00,,,0.00,VWS V13.01,2013-01-02 21:13:00,
2013-01-02 15:18:00,34.3,26.9,30.19,South,188,2.2,4.0,74,0.00,,,0.00,VWS V13.01,2013-01-02 21:18:00,
2013-01-02 15:23:00,34.7,26.9,30.19,West,274,2.7,3.6,73,0.00,,,0.00,VWS V13.01,2013-01-02 21:23:00,
2013-01-02 15:28:00,34.7,26.9,30.19,SSW,197,3.6,5.4,73,0.00,,,0.00,VWS V13.01,2013-01-02 21:28:00,
2013-01-02 15:33:00,34.7,26.9,30.19,SW,228,3.6,4.0,73,0.00,,,0.00,VWS V13.01,2013-01-02 21:33:00,
2013-01-02 15:38:00,34.7,26.6,30.19,South,178,2.7,3.6,72,0.00,,,0.00,VWS V13.01,2013-01-02 21:38:00,
2013-01-02 15:43:00,34.5,26.4,30.19,SSW,211,0.0,3.1,72,0.00,,,0.00,VWS V13.01,2013-01-02 21:43:00,
2013-01-02 15:47:00,34.3,26.2,30.19,South,186,5.4,6.3,72,0.00,,,0.00,VWS V13.01,2013-01-02 21:47:00,
2013-01-02 15:52:00,34.3,26.2,30.19,SW,218,2.7,4.9,72,0.00,,,0.00,VWS V13.01,2013-01-02 21:52:00,
2013-01-02 15:57:00,34.3,26.2,30.19,SSW,207,4.0,4.0,72,0.00,,,0.00,VWS V13.01,2013-01-02 21:57:00,
2013-01-02 16:02:00,34.3,26.2,30.19,SW,226,4.0,4.9,72,0.00,,,0.00,VWS V13.01,2013-01-02 22:02:00,
2013-01-02 16:07:00,34.3,25.9,30.19,SSW,199,5.4,5.4,71,0.00,,,0.00,VWS V13.01,2013-01-02 22:07:00,
2013-01-02 16:12:00,34.1,25.7,30.19,SSW,212,2.2,4.0,71,0.00,,,0.00,VWS V13.01,2013-01-02 22:12:00,
2013-01-02 16:17:00,34.1,25.4,30.22,SSW,211,4.0,4.0,70,0.00,,,0.00,VWS V13.01,2013-01-02 22:17:00,
2013-01-02 16:22:00,34.0,25.2,30.22,South,180,6.3,6.3,70,0.00,,,0.00,VWS V13.01,2013-01-02 22:22:00,
2013-01-02 16:27:00,34.0,25.6,30.22,SSW,194,4.0,4.0,71,0.00,,,0.00,VWS V13.01,2013-01-02 22:27:00,
2013-01-02 16:32:00,33.8,25.0,30.22,SSW,200,3.6,5.4,70,0.00,,,0.00,VWS V13.01,2013-01-02 22:32:00,
2013-01-02 16:37:00,33.8,24.7,30.22,SSW,193,4.0,7.6,69,0.00,,,0.00,VWS V13.01,2013-01-02 22:37:00,
2013-01-02 16:42:00,33.6,24.9,30.22,SSW,208,4.0,4.9,70,0.00,,,0.00,VWS V13.01,2013-01-02 22:42:00,
2013-01-02 16:47:00,33.6,24.9,30.19,SSW,197,4.0,4.0,70,0.00,,,0.00,VWS V13.01,2013-01-02 22:47:00,
2013-01-02 16:52:00,33.4,25.0,30.19,SSW,204,3.1,3.6,71,0.00,,,0.00,VWS V13.01,2013-01-02 22:52:00,
2013-01-02 16:57:00,33.1,24.7,30.19,SW,233,3.1,3.1,71,0.00,,,0.00,VWS V13.01,2013-01-02 22:57:00,
2013-01-02 17:02:00,32.9,24.5,30.22,SW,218,2.2,2.7,71,0.00,,,0.00,VWS V13.01,2013-01-02 23:02:00,
2013-01-02 17:07:00,32.7,24.4,30.22,SW,218,0.0,0.0,71,0.00,,,0.00,VWS V13.01,2013-01-02 23:07:00,
2013-01-02 17:12:00,32.5,24.5,30.22,SSW,212,0.0,0.0,72,0.00,,,0.00,VWS V13.01,2013-01-02 23:12:00,
2013-01-02 17:17:00,32.3,24.3,30.22,SSW,212,0.0,0.0,72,0.00,,,0.00,VWS V13.01,2013-01-02 23:17:00,
2013-01-02 17:22:00,32.3,24.3,30.22,SSW,212,0.0,0.0,72,0.00,,,0.00,VWS V13.01,2013-01-02 23:22:00,
2013-01-02 17:27:00,32.3,24.3,30.22,SSW,204,0.0,0.0,72,0.00,,,0.00,VWS V13.01,2013-01-02 23:27:00,
2013-01-02 17:32:00,32.2,24.2,30.19,SSW,204,0.0,0.0,72,0.00,,,0.00,VWS V13.01,2013-01-02 23:32:00,
2013-01-02 17:37:00,32.0,24.0,30.19,SSW,204,0.0,0.0,72,0.00,,,0.00,VWS V13.01,2013-01-02 23:37:00,
2013-01-02 17:42:00,31.8,23.8,30.19,SSW,204,0.0,0.0,72,0.00,,,0.00,VWS V13.01,2013-01-02 23:42:00,
2013-01-02 17:47:00,31.4,23.5,30.22,SSW,204,0.0,0.0,72,0.00,,,0.00,VWS V13.01,2013-01-02 23:47:00,
2013-01-02 17:52:00,31.3,23.3,30.22,SSW,204,0.0,0.0,72,0.00,,,0.00,VWS V13.01,2013-01-02 23:52:00,
2013-01-02 17:57:00,31.3,23.6,30.22,SSW,204,0.0,0.0,73,0.00,,,0.00,VWS V13.01,2013-01-02 23:57:00,
2013-01-02 18:02:00,31.1,23.5,30.22,SSW,204,0.0,0.0,73,0.00,,,0.00,VWS V13.01,2013-01-03 00:02:00,
2013-01-02 18:07:00,31.1,24.7,30.22,SSW,204,0.0,0.0,77,0.00,,,0.00,VWS V13.01,2013-01-03 00:07:00,
2013-01-02 18:12:00,31.1,24.7,30.22,SSW,204,0.0,0.0,77,0.00,,,0.00,VWS V13.01,2013-01-03 00:12:00,
2013-01-02 18:17:00,30.7,24.4,30.22,SSW,204,0.0,0.0,77,0.00,,,0.00,VWS V13.01,2013-01-03 00:17:00,
2013-01-02 18:22:00,30.5,24.5,30.22,SSW,204,0.0,0.0,78,0.00,,,0.00,VWS V13.01,2013-01-03 00:22:00,
2013-01-02 18:27:00,30.2,25.1,30.22,SSW,204,0.0,0.0,81,0.00,,,0.00,VWS V13.01,2013-01-03 00:27:00,
2013-01-02 18:32:00,29.8,25.6,30.22,SSW,204,0.0,0.0,84,0.00,,,0.00,VWS V13.01,2013-01-03 00:32:00,
2013-01-02 18:37:00,29.5,25.5,30.22,SSW,204,0.0,0.0,85,0.00,,,0.00,VWS V13.01,2013-01-03 00:37:00,
2013-01-02 18:42:00,29.3,25.6,30.22,SSW,204,0.0,0.0,86,0.00,,,0.00,VWS V13.01,2013-01-03 00:42:00,
2013-01-02 18:47:00,29.1,25.7,30.22,SSW,204,0.0,0.0,87,0.00,,,0.00,VWS V13.01,2013-01-03 00:47:00,
2013-01-02 18:52:00,28.6,25.5,30.22,ENE,64,0.0,0.0,88,0.00,,,0.00,VWS V13.01,2013-01-03 00:52:00,
2013-01-02 18:57:00,28.2,25.1,30.22,ENE,64,0.0,0.0,88,0.00,,,0.00,VWS V13.01,2013-01-03 00:57:00,
2013-01-02 19:02:00,28.0,25.7,30.25,ENE,64,0.0,0.0,91,0.00,,,0.00,VWS V13.01,2013-01-03 01:02:00,
2013-01-02 19:07:00,27.8,26.1,30.25,ENE,64,0.0,0.0,93,0.00,,,0.00,VWS V13.01,2013-01-03 01:07:00,
2013-01-02 19:12:00,27.8,26.1,30.25,ENE,64,0.0,0.0,93,0.00,,,0.00,VWS V13.01,2013-01-03 01:12:00,
2013-01-02 19:17:00,27.5,26.0,30.25,ENE,64,0.0,0.0,94,0.00,,,0.00,VWS V13.01,2013-01-03 01:17:00,
2013-01-02 19:22:00,27.5,26.2,30.25,ENE,64,0.0,0.0,95,0.00,,,0.00,VWS V13.01,2013-01-03 01:22:00,
2013-01-02 19:27:00,27.5,26.2,30.25,ENE,64,0.0,0.0,95,0.00,,,0.00,VWS V13.01,2013-01-03 01:27:00,
2013-01-02 19:32:00,27.3,26.1,30.25,ENE,64,0.0,0.0,95,0.00,,,0.00,VWS V13.01,2013-01-03 01:32:00,
2013-01-02 19:37:00,26.9,25.5,30.25,ENE,64,0.0,0.0,94,0.00,,,0.00,VWS V13.01,2013-01-03 01:37:00,
2013-01-02 19:42:00,26.8,25.5,30.25,ENE,64,0.0,0.0,95,0.00,,,0.00,VWS V13.01,2013-01-03 01:42:00,
2013-01-02 19:47:00,26.6,25.3,30.25,ENE,64,0.0,0.0,95,0.00,,,0.00,VWS V13.01,2013-01-03 01:47:00,
2013-01-02 19:52:00,26.6,25.6,30.25,ENE,64,0.0,0.0,96,0.00,,,0.00,VWS V13.01,2013-01-03 01:52:00,
2013-01-02 19:57:00,26.4,25.4,30.25,ENE,64,0.0,0.0,96,0.00,,,0.00,VWS V13.01,2013-01-03 01:57:00,
2013-01-02 20:02:00,26.2,25.2,30.25,ENE,64,0.0,0.0,96,0.00,,,0.00,VWS V13.01,2013-01-03 02:02:00,
2013-01-02 20:07:00,26.0,25.1,30.25,ENE,64,0.0,0.0,96,0.00,,,0.00,VWS V13.01,2013-01-03 02:07:00,
2013-01-02 20:12:00,25.9,24.9,30.25,ENE,64,0.0,0.0,96,0.00,,,0.00,VWS V13.01,2013-01-03 02:12:00,
2013-01-02 20:17:00,25.7,24.7,30.25,ENE,64,0.0,0.0,96,0.00,,,0.00,VWS V13.01,2013-01-03 02:17:00,
2013-01-02 20:22:00,25.7,25.2,30.25,ENE,64,0.0,0.0,98,0.00,,,0.00,VWS V13.01,2013-01-03 02:22:00,
2013-01-02 20:27:00,25.5,25.3,30.25,ENE,64,0.0,0.0,99,0.00,,,0.00,VWS V13.01,2013-01-03 02:27:00,
2013-01-02 20:32:00,25.3,25.1,30.25,ENE,64,0.0,0.0,99,0.00,,,0.00,VWS V13.01,2013-01-03 02:32:00,
2013-01-02 20:37:00,25.1,24.9,30.25,ENE,64,0.0,0.0,99,0.00,,,0.00,VWS V13.01,2013-01-03 02:37:00,
2013-01-02 20:42:00,25.1,24.9,30.25,ENE,64,0.0,0.0,99,0.00,,,0.00,VWS V13.01,2013-01-03 02:42:00,
2013-01-02 20:47:00,25.0,24.7,30.25,ENE,64,0.0,0.0,99,0.00,,,0.00,VWS V13.01,2013-01-03 02:47:00,
2013-01-02 20:52:00,25.0,24.7,30.25,ENE,64,0.0,0.0,99,0.00,,,0.00,VWS V13.01,2013-01-03 02:52:00,
2013-01-02 20:57:00,25.0,24.7,30.25,ENE,64,0.0,0.0,99,0.00,,,0.00,VWS V13.01,2013-01-03 02:57:00,
2013-01-02 21:02:00,24.8,24.5,30.28,ENE,64,0.0,0.0,99,0.00,,,0.00,VWS V13.01,2013-01-03 03:02:00,
2013-01-02 21:07:00,24.6,24.4,30.28,ENE,64,0.0,0.0,99,0.00,,,0.00,VWS V13.01,2013-01-03 03:07:00,
2013-01-02 21:12:00,24.6,24.6,30.28,ENE,64,0.0,0.0,100,0.00,,,0.00,VWS V13.01,2013-01-03 03:12:00,
2013-01-02 21:17:00,24.4,24.4,30.28,ENE,64,0.0,0.0,100,0.00,,,0.00,VWS V13.01,2013-01-03 03:17:00,
2013-01-02 21:22:00,24.4,24.4,30.28,ENE,64,0.0,0.0,100,0.00,,,0.00,VWS V13.01,2013-01-03 03:22:00,
2013-01-02 21:27:00,24.4,24.4,30.28,ENE,64,0.0,0.0,100,0.00,,,0.00,VWS V13.01,2013-01-03 03:27:00,
2013-01-02 21:32:00,24.4,24.4,30.25,ENE,64,0.0,0.0,100,0.00,,,0.00,VWS V13.01,2013-01-03 03:32:00,
2013-01-02 21:38:00,24.4,24.4,30.25,ENE,64,0.0,0.0,100,0.00,,,0.00,VWS V13.01,2013-01-03 03:38:00,
2013-01-02 21:43:00,24.4,24.4,30.28,ENE,64,0.0,0.0,100,0.00,,,0.00,VWS V13.01,2013-01-03 03:43:00,
2013-01-02 21:48:00,24.1,24.1,30.28,ENE,64,0.0,0.0,100,0.00,,,0.00,VWS V13.01,2013-01-03 03:48:00,
2013-01-02 21:53:00,24.1,24.1,30.28,ENE,64,0.0,0.0,100,0.00,,,0.00,VWS V13.01,2013-01-03 03:53:00,
2013-01-02 21:58:00,24.1,24.1,30.28,ENE,64,0.0,0.0,100,0.00,,,0.00,VWS V13.01,2013-01-03 03:58:00,
2013-01-02 22:03:00,23.9,23.9,30.28,ENE,64,0.0,0.0,100,0.00,,,0.00,VWS V13.01,2013-01-03 04:03:00,
2013-01-02 22:08:00,23.7,23.7,30.28,ENE,64,0.0,0.0,100,0.00,,,0.00,VWS V13.01,2013-01-03 04:08:00,
2013-01-02 22:13:00,23.7,23.7,30.28,ENE,64,0.0,0.0,100,0.00,,,0.00,VWS V13.01,2013-01-03 04:13:00,
2013-01-02 22:18:00,23.5,23.5,30.28,ENE,64,0.0,0.0,100,0.00,,,0.00,VWS V13.01,2013-01-03 04:18:00,
2013-01-02 22:23:00,23.3,23.3,30.28,ENE,64,0.0,0.0,100,0.00,,,0.00,VWS V13.01,2013-01-03 04:23:00,
2013-01-02 22:28:00,23.3,23.3,30.28,ENE,64,0.0,0.0,100,0.00,,,0.00,VWS V13.01,2013-01-03 04:28:00,
2013-01-02 22:33:00,23.2,23.2,30.28,ENE,64,0.0,0.0,100,0.00,,,0.00,VWS V13.01,2013-01-03 04:33:00,
2013-01-02 22:38:00,23.2,23.2,30.28,ENE,64,0.0,0.0,100,0.00,,,0.00,VWS V13.01,2013-01-03 04:38:00,
2013-01-02 22:43:00,22.8,22.8,30.28,ENE,64,0.0,0.0,100,0.00,,,0.00,VWS V13.01,2013-01-03 04:43:00,
2013-01-02 22:48:00,22.6,22.6,30.25,ENE,64,0.0,0.0,100,0.00,,,0.00,VWS V13.01,2013-01-03 04:48:00,
2013-01-02 22:53:00,22.6,22.6,30.25,ENE,64,0.0,0.0,100,0.00,,,0.00,VWS V13.01,2013-01-03 04:53:00,
2013-01-02 22:58:00,22.6,22.6,30.25,ENE,64,0.0,0.0,100,0.00,,,0.00,VWS V13.01,2013-01-03 04:58:00,
2013-01-02 23:00:00,22.6,22.6,30.25,ENE,64,0.0,0.0,100,0.00,,,0.00,VWS V13.01,2013-01-03 05:00:00,
2013-01-02 23:02:00,22.4,22.4,30.25,ENE,64,0.0,0.0,100,0.00,,,0.00,VWS V13.01,2013-01-03 05:02:00,
2013-01-02 23:07:00,22.4,22.4,30.25,ENE,64,0.0,0.0,100,0.00,,,0.00,VWS V13.01,2013-01-03 05:07:00,
2013-01-02 23:12:00,22.3,22.3,30.25,ENE,64,0.0,0.0,100,0.00,,,0.00,VWS V13.01,2013-01-03 05:12:00,
2013-01-02 23:17:00,22.1,22.1,30.25,ENE,64,0.0,0.0,100,0.00,,,0.00,VWS V13.01,2013-01-03 05:17:00,
2013-01-02 23:22:00,22.1,22.1,30.25,ENE,64,0.0,0.0,100,0.00,,,0.00,VWS V13.01,2013-01-03 05:22:00,
2013-01-02 23:27:00,21.9,21.9,30.25,ENE,64,0.0,0.0,100,0.00,,,0.00,VWS V13.01,2013-01-03 05:27:00,
2013-01-02 23:32:00,21.7,21.7,30.25,ENE,64,0.0,0.0,100,0.00,,,0.00,VWS V13.01,2013-01-03 05:32:00,
2013-01-02 23:37:00,21.7,21.7,30.25,ENE,64,0.0,0.0,100,0.00,,,0.00,VWS V13.01,2013-01-03 05:37:00,
2013-01-02 23:42:00,21.9,21.9,30.25,ENE,64,0.0,0.0,100,0.00,,,0.00,VWS V13.01,2013-01-03 05:42:00,
2013-01-02 23:47:00,21.9,21.9,30.28,ENE,64,0.0,0.0,100,0.00,,,0.00,VWS V13.01,2013-01-03 05:47:00,
2013-01-02 23:52:00,21.9,21.9,30.28,ENE,64,0.0,0.0,100,0.00,,,0.00,VWS V13.01,2013-01-03 05:52:00,
2013-01-02 23:57:00,21.9,21.9,30.28,ENE,64,0.0,0.0,100,0.00,,,0.00,VWS V13.01,2013-01-03 05:57:00,